Regional Weather Roundup
Issued by NWS

Home | Current Version | Previous Version | Graphics & Text | Print | Product List | Glossary On
Versions: 1 2 3 4 5 6 7 8 9 10 11 12 13 14 15 16 17 18 19 20 21 22 23 24 25 26 27
000
ASUS45 KBOU 251607
RWRCO

WEATHER ROUNDUP FOR COLORADO
NATIONAL WEATHER SERVICE DENVER/BOULDER CO
900 AM MST SAT FEB 25 2017

NOTE: "FAIR" INDICATES FEW OR NO CLOUDS BELOW 12000 FEET WITH NO
SIGNIFICANT WEATHER AND/OR OBSTRUCTIONS TO VISIBILITY.

COZ001>005-013-030-031-251700-
...NORTHWEST COLORADO...

CITY           SKY/WX    TMP DP  RH WIND       PRES   REMARKS
CRAIG          PTSUNNY   14   9  80 E3        30.02S
HAYDEN         FAIR      14   7  73 E3        29.99S
MEEKER         FAIR       9   5  84 CALM      30.02S
MOUNT WERNER   NOT AVBL
STEAMBOAT SPGS CLOUDY    10   5  82 CALM      29.97F
WALDEN         NOT AVBL
$$

COZ006>008-011-251700-
...WEST CENTRAL VALLEYS...

CITY           SKY/WX    TMP DP  RH WIND       PRES   REMARKS
GRAND JUNCTION FAIR      24  15  68 SE9       30.09S WCI  14
MONTROSE       FAIR      22   9  57 S7        30.11S WCI  13
EAGLE          CLOUDY    16   9  73 E6        30.03F WCI   7
RIFLE          FAIR      16  10  77 CALM      30.08F
DELTA          FAIR      23  13  65 CALM      30.12S
NUCLA          FAIR      23   5  46 SE6       30.12S WCI  16
$$

COZ017>023-064>068-251700-
...SOUTHWEST COLORADO...

CITY           SKY/WX    TMP DP  RH WIND       PRES   REMARKS
DURANGO        PTSUNNY   19   8  62 SE3       30.06R
CORTEZ         FAIR      23  11  60 VRB3      30.08F
PAGOSA SPRINGS FAIR      15   3  58 CALM      30.03S
TELLURIDE      CLOUDY    10   0  62 SE3       29.98S
WOLF CREEK PAS CLOUDY     0  -2  92 S21G30    29.87S FOG     WCI -23
$$

COZ009-010-012-014-032>034-037-058>063-251700-
...CENTRAL COLORADO...

CITY           SKY/WX    TMP DP  RH WIND       PRES   REMARKS
ASPEN          FAIR       8  -2  63 S3        29.95S
BUENA VISTA    FAIR      20  -7  29 W13G26    29.91F WCI   7
COPPER MTN     NOT AVBL
BERTHOUD PASS    N/A     -9 -18  64 NW24G30   29.67S WCI -36
COTTONWOOD PAS FAIR      14  -8  37 W13G30    29.82S WCI   0
GUNNISON       FAIR       0  -5  79 E6        30.04R WCI -12
KREMMLING      PTSUNNY   19  10  68 E3        29.96F
LEADVILLE      FAIR       7 -10  46 N7        29.83S WCI  -5
MONARCH PASS   CLOUDY    -2  -8  78 W35       29.87S WCI -30
SALIDA         FAIR      24  -3  30 SW17G31   30.00F WCI  11
SUNLIGHT       NOT AVBL
WILKERSON PASS FAIR       3  -9  55 W14G28    29.75S WCI -15
$$

COZ069>075-251700-
...SAN LUIS VALLEY/SANGRE DE CRISTO MOUNTAINS...

CITY           SKY/WX    TMP DP  RH WIND       PRES   REMARKS
ALAMOSA        FAIR      19   7  59 E3        29.98F
LA VETA PASS   FAIR      10   0  61 S16G31    29.82F WCI  -7
SAGUACHE       FAIR      19   1  45 NW12      29.98S WCI   7
$$

COZ035-036-038>040-251700-
...NORTHERN COLORADO FRONT RANGE...

CITY           SKY/WX    TMP DP  RH WIND       PRES   REMARKS
DENVER INTL AP FAIR      26   7  44 SW6       29.92F WCI  19
DMNS CITY PARK   N/A     23   6  48 SE8       29.92F WCI  13
AURORA         NOT AVBL
FRONT RANGE AP NOT AVBL
ERIE MUNI ARPT FAIR      26  16  67 E5        29.92F WCI  20
BOULDER MUN AP FAIR      21  12  68 N3        29.92F
CENTENNIAL     PTSUNNY   22   3  44 S3        29.91F
BROOMFIELD     MOSUNNY   25   9  50 VRB5      29.91F WCI  19
FORT COLLINS   FAIR      20  14  77 CALM      29.94F
LONGMONT       FAIR      22  14  69 SW5       29.95S WCI  16
$$

COZ041-046-047-076>085-087-088-251700-
...PIKES PEAK/PALMER DIVIDE AND SOUTHERN FOOTHILLS...

CITY           SKY/WX    TMP DP  RH WIND       PRES   REMARKS
COLO. SPRINGS  FAIR      20  12  71 CALM      29.93F
A. F. ACADEMY  FAIR      25  -6  25 CALM      29.89S
SCHRIEVER AFB  FAIR      23  10  57 S7        29.93F WCI  15
ELLICOTT       FAIR     N/A N/A N/A NE3       29.92
FALCON         FAIR      22   6  52 S3        29.91S
FORT CARSON    FAIR      21  14  74 NE5       29.93F WCI  15
LIMON          FAIR      24  14  65 W6        29.95F WCI  17
MONUMENT HILL  FAIR      19   1  45 SW5       29.90S WCI  13
TRINIDAD       FAIR      29   6  38 NW3       29.98F
$$

COZ042>045-048>051-090-091-251700-
...NORTHEAST COLORADO...

CITY           SKY/WX    TMP DP  RH WIND       PRES   REMARKS
GREELEY ARPT   FAIR      24  16  71 CALM      29.97F
AKRON          FAIR      22  16  78 W10       29.95F WCI  11
BURLINGTON     FAIR      29  18  63 SW18      30.00F WCI  16
WRAY           NOT AVBL
STERLING       FAIR      18  16  93 CALM      29.98S
HOLYOKE        FAIR      30  18  59 W14       29.97F WCI  20
FORT MORGAN    FAIR      21  18  86 SW5       29.98S WCI  15
$$

COZ086-089-092>099-251700-
...SOUTHEAST COLORADO...

CITY           SKY/WX    TMP DP  RH WIND       PRES   REMARKS
PUEBLO         FAIR      24  12  60 CALM      29.99F
LA JUNTA       FAIR      26  17  68 W9        30.02F WCI  17
LAMAR          FAIR      28  16  60 W8        30.03F WCI  20
SPRINGFIELD      N/A     31  15  52 SW18G25   30.02F WCI  19
$$




USA.gov is the U.S. government's official web portal to all federal, state and local government web resources and services.